| time (UTC) | temp C | wind direction | speed KPH | gust KPH | rain 1hr cm | rain 24hr cm | rain mn cm | humidity % | barometer mb |
| 20260507151540 | 16 | 134 | 0.0 | 1.6 | 0.00 | 0.05 | 0.00 | 50 | 1011.7 |
| 20260507150040 | 16 | 134 | 0.0 | 0.0 | 0.00 | 0.05 | 0.00 | 44 | 1011.9 |
| 20260507144538 | 16 | 134 | 0.0 | 0.0 | 0.00 | 0.23 | 0.00 | 51 | 1012.1 |
| 20260507143036 | 16 | 134 | 0.0 | 0.0 | 0.00 | 0.23 | 0.00 | 50 | 1012.1 |
| 20260507141527 | 14 | 134 | 0.0 | 0.0 | 0.00 | 0.23 | 0.00 | 50 | 1012.4 |
| 20260507140030 | 13 | 134 | 0.0 | 0.0 | 0.00 | 0.23 | 0.00 | 54 | 1012.6 |
| 20260507134527 | 13 | 134 | 0.0 | 0.0 | 0.00 | 0.38 | 0.00 | 53 | 1012.9 |
| 20260507133024 | 13 | 134 | 0.0 | 1.6 | 0.00 | 0.38 | 0.00 | 61 | 1013.1 |
| 20260507131517 | 12 | 134 | 0.0 | 1.6 | 0.00 | 0.38 | 0.00 | 56 | 1012.9 |
| 20260507130015 | 12 | 134 | 0.0 | 0.0 | 0.00 | 0.38 | 0.00 | 58 | 1013.0 |
| 20260507124515 | 11 | 134 | 0.0 | 0.0 | 0.00 | 0.38 | 0.00 | 60 | 1013.0 |
| 20260507123014 | 11 | 134 | 0.0 | 0.0 | 0.00 | 0.38 | 0.00 | 63 | 1012.8 |
| 20260507121508 | -17 | 0.0 | 0.0 | 0.00 | 0.38 | 0.00 | 1012.8 | ||
| 20260507120006 | -17 | 0.0 | 0.0 | 0.00 | 0.38 | 0.00 | 1012.8 | ||
| 20260507114639 | -17 | 0.0 | 0.0 | 0.00 | 0.38 | 0.00 | 1012.9 | ||
| 20260507113055 | -17 | 0.0 | 0.0 | 0.00 | 0.38 | 0.00 | 1012.7 | ||
| 20260507111550 | -17 | 0.0 | 0.0 | 0.00 | 0.38 | 0.00 | 1012.7 | ||
| 20260507110044 | -17 | 0.0 | 0.0 | 0.00 | 0.38 | 0.00 | 1012.6 | ||
| 20260507104539 | -17 | 0.0 | 0.0 | 0.00 | 0.38 | 0.00 | 1012.2 | ||
| 20260507103034 | -17 | 0.0 | 0.0 | 0.00 | 0.38 | 0.00 | 1012.0 | ||
| 20260507101529 | -17 | 134 | 0.0 | 0.0 | 0.00 | 0.38 | 0.00 | 1011.8 | |
| 20260507100027 | 9 | 134 | 0.0 | 0.0 | 0.00 | 0.38 | 0.00 | 71 | 1011.6 |
| 20260507094525 | 9 | 134 | 0.0 | 0.0 | 0.00 | 0.38 | 0.00 | 71 | 1011.6 |
| 20260507093026 | 9 | 134 | 0.0 | 0.0 | 0.00 | 0.38 | 0.00 | 71 | 1011.6 |
| 20260507091511 | 10 | 134 | 0.0 | 0.0 | 0.00 | 0.38 | 0.00 | 69 | 1011.6 |
| 20260507090019 | 10 | 134 | 0.0 | 0.0 | 0.00 | 0.38 | 0.00 | 67 | 1011.5 |
| 20260507084506 | 10 | 134 | 0.0 | 0.0 | 0.00 | 0.38 | 0.00 | 68 | 1011.3 |
| 20260507083006 | 10 | 134 | 0.0 | 0.0 | 0.00 | 0.38 | 0.00 | 67 | 1011.2 |
| 20260507081505 | 10 | 134 | 0.0 | 0.0 | 0.00 | 0.38 | 0.00 | 69 | 1011.2 |
| 20260507080005 | 10 | 134 | 0.0 | 0.0 | 0.00 | 0.38 | 0.00 | 70 | 1011.0 |
| 20260507074502 | 10 | 134 | 0.0 | 0.0 | 0.00 | 0.38 | 0.00 | 72 | 1010.8 |
| 20260507073002 | 11 | 134 | 0.0 | 0.0 | 0.00 | 0.00 | 0.00 | 74 | 1010.9 |
| 20260507071505 | 11 | 134 | 0.0 | 0.0 | 0.00 | 0.38 | 0.00 | 75 | 1011.1 |
| 20260507070008 | 11 | 134 | 0.0 | 0.0 | 0.00 | 0.38 | 0.00 | 77 | 1011.2 |
| 20260507064502 | 11 | 134 | 0.0 | 0.0 | 0.00 | 0.38 | 0.00 | 79 | 1011.3 |
| 20260507063107 | 11 | 134 | 0.0 | 0.0 | 0.00 | 0.38 | 0.00 | 78 | 1011.3 |
| 20260507061533 | 11 | 134 | 0.0 | 0.0 | 0.00 | 0.38 | 0.00 | 80 | 1011.4 |
| 20260507060031 | 11 | 134 | 0.0 | 0.0 | 0.00 | 0.38 | 0.00 | 79 | 1011.4 |
| 20260507054559 | 12 | 134 | 0.0 | 0.0 | 0.00 | 0.38 | 0.00 | 78 | 1011.0 |
| 20260507053111 | 12 | 134 | 0.0 | 0.0 | 0.00 | 0.38 | 0.00 | 80 | 1010.9 |
| 20260507050042 | 12 | 134 | 0.0 | 0.0 | 0.00 | 0.38 | 0.00 | 80 | 1010.8 |
| 20260507044539 | 12 | 134 | 0.0 | 0.0 | 0.00 | 0.38 | 0.00 | 80 | 1010.9 |
| 20260507043038 | 12 | 134 | 0.0 | 0.0 | 0.00 | 0.38 | 0.00 | 79 | 1010.7 |
| 20260507041535 | 12 | 134 | 0.0 | 0.0 | 0.00 | 0.38 | 0.00 | 78 | 1011.1 |
| 20260507040033 | 12 | 134 | 0.0 | 1.6 | 0.00 | 0.38 | 0.00 | 79 | 1011.0 |
| 20260507034528 | 12 | 134 | 0.0 | 0.0 | 0.00 | 0.38 | 0.38 | 79 | 1011.1 |
| 20260507033031 | 12 | 134 | 0.0 | 0.0 | 0.00 | 0.38 | 0.38 | 79 | 1010.5 |
| 20260507031527 | 12 | 134 | 0.0 | 0.0 | 0.00 | 0.38 | 0.38 | 80 | 1010.9 |
| 20260507030026 | 12 | 134 | 0.0 | 0.0 | 0.00 | 0.38 | 0.38 | 81 | 1010.9 |
| 20260507024523 | 12 | 134 | 0.0 | 0.0 | 0.00 | 0.38 | 0.38 | 83 | 1010.7 |
| 20260507023021 | 12 | 134 | 0.0 | 3.2 | 0.00 | 0.38 | 0.38 | 83 | 1010.4 |
| 20260507021521 | 13 | 134 | 0.0 | 0.0 | 0.00 | 0.38 | 0.38 | 84 | 1010.5 |
| 20260507020021 | 13 | 134 | 0.0 | 0.0 | 0.00 | 0.38 | 0.38 | 84 | 1010.5 |
| 20260507014526 | 13 | 134 | 0.0 | 0.0 | 0.00 | 0.38 | 0.38 | 83 | 1010.2 |
| 20260507013033 | 13 | 134 | 0.0 | 0.0 | 0.00 | 0.38 | 0.38 | 83 | 1010.2 |
| 20260507011514 | 13 | 134 | 0.0 | 0.0 | 0.00 | 0.38 | 0.38 | 82 | 1010.4 |
| 20260507010010 | 14 | 134 | 0.0 | 0.0 | 0.00 | 0.38 | 0.38 | 81 | 1009.9 |
| 20260507004506 | 14 | 134 | 0.0 | 0.0 | 0.00 | 0.38 | 0.38 | 80 | 1010.2 |
| 20260507003043 | 15 | 134 | 0.0 | 0.0 | 0.00 | 0.38 | 0.38 | 80 | 1009.9 |
| 20260507001540 | 15 | 134 | 0.0 | 0.0 | 0.00 | 0.38 | 0.38 | 80 | 1009.8 |
| 20260507000033 | 15 | 134 | 0.0 | 0.0 | 0.00 | 0.38 | 0.38 | 78 | 1009.4 |
| 20260506234527 | 16 | 134 | 0.0 | 0.0 | 0.00 | 0.38 | 0.38 | 78 | 1009.2 |
| 20260506233027 | 16 | 134 | 0.0 | 0.0 | 0.00 | 0.38 | 0.38 | 78 | 1008.5 |
| 20260506231522 | 16 | 134 | 0.0 | 0.0 | 0.00 | 0.38 | 0.38 | 78 | 1008.3 |
| 20260506230020 | 16 | 134 | 0.0 | 0.0 | 0.00 | 0.38 | 0.38 | 80 | 1008.2 |
| 20260506224518 | 17 | 134 | 0.0 | 0.0 | 0.00 | 0.38 | 0.38 | 81 | 1008.2 |
| 20260506223017 | 17 | 134 | 0.0 | 0.0 | 0.00 | 0.38 | 0.38 | 81 | 1007.9 |
| 20260506221516 | 17 | 134 | 0.0 | 0.0 | 0.00 | 0.38 | 0.38 | 83 | 1007.7 |
| 20260506220015 | 17 | 134 | 0.0 | 0.0 | 0.00 | 0.38 | 0.38 | 83 | 1007.5 |
| 20260506214524 | 18 | 134 | 0.0 | 0.0 | 0.03 | 0.38 | 0.38 | 87 | 1007.5 |
| 20260506213014 | 18 | 134 | 0.0 | 0.0 | 0.03 | 0.38 | 0.38 | 87 | 1007.0 |
| 20260506211512 | 18 | 134 | 0.0 | 3.2 | 0.03 | 0.38 | 0.38 | 86 | 1006.9 |
| 20260506210009 | 18 | 134 | 0.0 | 0.0 | 0.03 | 0.38 | 0.38 | 88 | 1006.5 |
| 20260506204509 | 19 | 134 | 0.0 | 0.0 | 0.00 | 0.36 | 0.36 | 86 | 1006.5 |
| 20260506203008 | 20 | 134 | 0.0 | 1.6 | 0.00 | 0.36 | 0.36 | 83 | 1006.4 |
| 20260506201509 | 20 | 134 | 0.0 | 1.6 | 0.00 | 0.36 | 0.36 | 83 | 1006.3 |
| 20260506200005 | 20 | 134 | 0.0 | 1.6 | 0.00 | 0.36 | 0.36 | 83 | 1006.3 |
| 20260506194504 | 20 | 134 | 0.0 | 1.6 | 0.00 | 0.36 | 0.36 | 85 | 1006.3 |
| 20260506193001 | 19 | 134 | 0.0 | 4.8 | 0.00 | 0.36 | 0.36 | 88 | 1006.4 |
| 20260506191502 | 19 | 134 | 0.0 | 1.6 | 0.00 | 0.36 | 0.36 | 88 | 1006.5 |
| 20260506190101 | 18 | 134 | 0.0 | 1.6 | 0.00 | 0.36 | 0.36 | 92 | 1006.5 |
| 20260506184604 | 18 | 134 | 0.0 | 1.6 | 0.03 | 0.36 | 0.36 | 91 | 1006.5 |
| 20260506183104 | 18 | 134 | 0.0 | 0.0 | 0.03 | 0.36 | 0.36 | 92 | 1006.9 |
| 20260506181622 | 18 | 134 | 0.0 | 0.0 | 0.03 | 0.36 | 0.36 | 92 | 1006.8 |
| 20260506180032 | 18 | 134 | 0.0 | 0.0 | 0.03 | 0.36 | 0.36 | 90 | 1006.9 |
| 20260506174527 | 18 | 134 | 0.0 | 0.0 | 0.00 | 0.33 | 0.33 | 89 | 1006.8 |
| 20260506173023 | 18 | 134 | 0.0 | 0.0 | 0.00 | 0.33 | 0.33 | 88 | 1006.6 |
| 20260506171523 | 18 | 134 | 0.0 | 12.9 | 0.00 | 0.33 | 0.33 | 87 | 1006.6 |
| 20260506170023 | 18 | 134 | 0.0 | 6.4 | 0.00 | 0.33 | 0.33 | 87 | 1006.5 |
| 20260506164525 | 17 | 134 | 1.6 | 4.8 | 0.00 | 0.33 | 0.33 | 89 | 1006.5 |
| 20260506163020 | 17 | 134 | 0.0 | 12.9 | 0.00 | 0.33 | 0.33 | 89 | 1006.6 |
| 20260506161518 | 17 | 134 | 0.0 | 9.7 | 0.00 | 0.33 | 0.33 | 90 | 1006.6 |
| 20260506160018 | 17 | 134 | 1.6 | 9.7 | 0.00 | 0.33 | 0.33 | 90 | 1006.5 |
| 20260506154517 | 16 | 134 | 1.6 | 16.1 | 0.00 | 0.33 | 0.33 | 92 | 1006.4 |
| 20260506153020 | 16 | 134 | 4.8 | 17.7 | 0.00 | 0.33 | 0.33 | 93 | 1006.5 |